2021-033B (48249 NORAD) Tracking and Keplerian Element Data

This shows tracking and keplerian element data for the satellite.

Feedback or suggestion? Click here.




ElementValue
Catalog48249
Name2021-033B
Epoch Orbit300
Epoch Day136.93579602
Epoch Year2021
RAAN212.442
Inclination97.3975
Eccentricity0.0013254
Argument of Perigee194.3707
Mean Anonmoly251.5164
Mean Motion15.21011828
Decay Rate2.963E-05
L11 48249U 21033B 21136.93579602 .00002963 00000-0 13644-3 0 9991
L22 48249 97.3975 212.4420 0013254 194.3707 251.5164 15.21011828 3006

Live tracking and technical data element details for 2021-033B (NORAD 48249). 2021-033B can be tracked NOW for your location showing map with azimuth and elevation plus other details from your city location.

Track the satellite on the map from your city or location and see movement details for azimuth, elevation, latitude, longitude, range, height, and movement on the map or in text.







IsCatalogInMostPopularTable: catalog: 48249, numindb: 3
Update: records affected: 1



GetName: 48249 2021-033B

Hit Count: updated at: Mon, 17 May 2021 16:59:55 GMT